Location: Casilda
(33.0440°S, 61.1680°W)
Time: 23:41:44
(UTC-03:00)

ISS - Pass Details

Date: 12 March 2026
Orbit: 417 x 426 km, 51.6° (Epoch: 16 March)

Event Time Altitude Azimuth Distance (km) Brightness Sun altitude
Rises 06:18:08 0° 2° (N) 2,349 0.0 -9.9°
Maximum altitude 06:22:25 10° 55° (NE) 1,503 -0.2 -9.1°
Drops below altitude 10° 06:22:52 10° 63° (ENE) 1,516 -0.1 -9.0°
Sets 06:26:46 0° 108° (ESE) 2,383 2.3 -8.2°
